| time (UTC) | temp C | wind direction | speed KPH | gust KPH | rain 1hr cm | rain 24hr cm | rain mn cm | humidity % | barometer mb |
| 20260504130822 | 9 | 300 | 1.6 | 6.4 | 0.00 | 0.03 | 0.03 | 72 | 1006.4 |
| 20260504130322 | 9 | 274 | 1.6 | 8.0 | 0.00 | 0.03 | 0.03 | 72 | 1006.5 |
| 20260504110321 | 7 | 32 | 3.2 | 8.0 | 0.00 | 0.03 | 0.03 | 82 | 1006.7 |
| 20260504100346 | 7 | 327 | 1.6 | 6.4 | 0.03 | 0.03 | 0.03 | 86 | 1006.9 |
| 20260504081821 | 7 | 35 | 1.6 | 6.4 | 0.00 | 0.00 | 0.00 | 81 | 1007.5 |
| 20260504081327 | 7 | 29 | 0.0 | 4.8 | 0.00 | 0.00 | 0.00 | 81 | 1007.6 |
| 20260504080826 | 7 | 43 | 1.6 | 4.8 | 0.00 | 0.00 | 0.00 | 81 | 1007.5 |
| 20260504080333 | 7 | 51 | 1.6 | 6.4 | 0.00 | 0.00 | 0.00 | 80 | 1007.5 |
| 20260504070310 | 7 | 46 | 3.2 | 6.4 | 0.00 | 0.00 | 0.00 | 71 | 1007.6 |
| 20260504050343 | 5 | 82 | 0.0 | 1.6 | 0.00 | 0.00 | 0.00 | 68 | 1008.0 |
| 20260504045828 | 5 | 70 | 0.0 | 1.6 | 0.00 | 0.00 | 0.00 | 68 | 1008.1 |
| 20260504045328 | 5 | 104 | 0.0 | 1.6 | 0.00 | 0.00 | 0.00 | 68 | 1008.1 |
| 20260504044835 | 5 | 110 | 0.0 | 1.6 | 0.00 | 0.00 | 0.00 | 68 | 1008.1 |
| 20260504044321 | 5 | 85 | 0.0 | 1.6 | 0.00 | 0.00 | 0.00 | 69 | 1008.1 |
| 20260504043820 | 5 | 75 | 0.0 | 3.2 | 0.00 | 0.00 | 0.00 | 69 | 1008.1 |
| 20260504043320 | 5 | 68 | 0.0 | 3.2 | 0.00 | 0.00 | 0.00 | 65 | 1008.2 |
| 20260504042827 | 5 | 55 | 0.0 | 3.2 | 0.00 | 0.00 | 0.00 | 65 | 1008.2 |
| 20260504042354 | 5 | 96 | 0.0 | 3.2 | 0.00 | 0.00 | 0.00 | 64 | 1008.2 |
| 20260504041813 | 5 | 60 | 0.0 | 3.2 | 0.00 | 0.00 | 0.00 | 64 | 1008.3 |
| 20260504041319 | 5 | 53 | 1.6 | 3.2 | 0.00 | 0.00 | 0.00 | 64 | 1008.3 |
| 20260504040819 | 5 | 82 | 0.0 | 3.2 | 0.00 | 0.00 | 0.00 | 64 | 1008.3 |
| 20260504040319 | 5 | 51 | 1.6 | 3.2 | 0.00 | 0.00 | 0.00 | 65 | 1008.3 |
| 20260504035825 | 5 | 96 | 1.6 | 3.2 | 0.00 | 0.00 | 0.00 | 66 | 1008.3 |
| 20260504035332 | 5 | 60 | 0.0 | 3.2 | 0.00 | 0.00 | 0.00 | 67 | 1008.3 |
| 20260504034832 | 5 | 64 | 0.0 | 1.6 | 0.00 | 0.00 | 0.00 | 66 | 1008.3 |
| 20260504034317 | 4 | 63 | 0.0 | 1.6 | 0.00 | 0.00 | 0.00 | 69 | 1008.3 |
| 20260504033818 | 3 | 90 | 0.0 | 1.6 | 0.00 | 0.00 | 0.00 | 72 | 1008.3 |
| 20260504033326 | 3 | 77 | 0.0 | 1.6 | 0.00 | 0.00 | 0.00 | 73 | 1008.3 |
| 20260504032852 | 3 | 80 | 0.0 | 0.0 | 0.00 | 0.00 | 0.00 | 72 | 1008.2 |
| 20260504032315 | 3 | 80 | 0.0 | 0.0 | 0.00 | 0.00 | 0.00 | 72 | 1008.2 |
| 20260504031818 | 3 | 80 | 0.0 | 1.6 | 0.00 | 0.00 | 0.00 | 71 | 1008.2 |
| 20260504031348 | 3 | 80 | 0.0 | 1.6 | 0.00 | 0.00 | 0.00 | 71 | 1008.2 |
| 20260504030834 | 3 | 80 | 0.0 | 1.6 | 0.00 | 0.00 | 0.00 | 71 | 1008.3 |
| 20260504030313 | 3 | 79 | 0.0 | 1.6 | 0.00 | 0.00 | 0.00 | 71 | 1008.3 |
| 20260504025814 | 4 | 79 | 0.0 | 1.6 | 0.00 | 0.00 | 0.00 | 69 | 1008.2 |
| 20260504025321 | 4 | 80 | 0.0 | 1.6 | 0.00 | 0.00 | 0.00 | 68 | 1008.3 |
| 20260504024821 | 4 | 77 | 0.0 | 1.6 | 0.00 | 0.00 | 0.00 | 69 | 1008.3 |
| 20260504024327 | 4 | 77 | 0.0 | 1.6 | 0.00 | 0.00 | 0.00 | 68 | 1008.3 |
| 20260504023827 | 4 | 77 | 0.0 | 1.6 | 0.00 | 0.00 | 0.00 | 68 | 1008.4 |
| 20260504023335 | 4 | 77 | 0.0 | 1.6 | 0.00 | 0.00 | 0.00 | 68 | 1008.5 |
| 20260504022814 | 4 | 80 | 0.0 | 1.6 | 0.00 | 0.00 | 0.00 | 68 | 1008.5 |
| 20260504022341 | 4 | 84 | 0.0 | 1.6 | 0.00 | 0.00 | 0.00 | 69 | 1008.6 |
| 20260504021820 | 4 | 82 | 0.0 | 1.6 | 0.00 | 0.00 | 0.00 | 69 | 1008.6 |
| 20260504021326 | 4 | 82 | 0.0 | 1.6 | 0.00 | 0.00 | 0.00 | 69 | 1008.6 |
| 20260504020826 | 4 | 82 | 0.0 | 1.6 | 0.00 | 0.00 | 0.00 | 69 | 1008.6 |
| 20260504020336 | 4 | 82 | 0.0 | 1.6 | 0.00 | 0.00 | 0.00 | 69 | 1008.6 |
| 20260504015820 | 4 | 82 | 0.0 | 1.6 | 0.00 | 0.00 | 0.00 | 68 | 1008.6 |
| 20260504015320 | 5 | 82 | 0.0 | 1.6 | 0.00 | 0.00 | 0.00 | 68 | 1008.7 |
| 20260504014820 | 5 | 82 | 0.0 | 1.6 | 0.00 | 0.00 | 0.00 | 67 | 1008.7 |
| 20260504014353 | 5 | 82 | 0.0 | 1.6 | 0.00 | 0.00 | 0.00 | 67 | 1008.7 |
| 20260504013813 | 5 | 82 | 0.0 | 1.6 | 0.00 | 0.00 | 0.00 | 66 | 1008.7 |
| 20260504013335 | 5 | 82 | 0.0 | 1.6 | 0.00 | 0.00 | 0.00 | 66 | 1008.8 |
| 20260504012820 | 5 | 82 | 0.0 | 1.6 | 0.00 | 0.00 | 0.00 | 66 | 1008.7 |
| 20260504012328 | 5 | 82 | 0.0 | 0.0 | 0.00 | 0.00 | 0.00 | 66 | 1008.7 |
| 20260504011811 | 5 | 82 | 0.0 | 0.0 | 0.00 | 0.00 | 0.00 | 66 | 1008.7 |
| 20260504011311 | 5 | 82 | 0.0 | 0.0 | 0.00 | 0.00 | 0.00 | 67 | 1008.6 |
| 20260504010820 | 5 | 82 | 0.0 | 0.0 | 0.00 | 0.00 | 0.00 | 66 | 1008.5 |
| 20260504010323 | 5 | 82 | 0.0 | 0.0 | 0.00 | 0.00 | 0.00 | 66 | 1008.5 |
| 20260504005829 | 6 | 82 | 0.0 | 0.0 | 0.00 | 0.03 | 0.00 | 66 | 1008.4 |
| 20260504005333 | 6 | 82 | 0.0 | 1.6 | 0.00 | 0.03 | 0.00 | 65 | 1008.4 |
| 20260504004818 | 6 | 82 | 0.0 | 1.6 | 0.00 | 0.03 | 0.00 | 65 | 1008.3 |
| 20260504004328 | 6 | 82 | 0.0 | 1.6 | 0.00 | 0.03 | 0.00 | 65 | 1008.3 |
| 20260504003829 | 6 | 82 | 0.0 | 0.0 | 0.00 | 0.03 | 0.00 | 64 | 1008.2 |
| 20260504003312 | 6 | 82 | 0.0 | 0.0 | 0.00 | 0.03 | 0.00 | 64 | 1008.3 |
| 20260504002821 | 6 | 82 | 0.0 | 0.0 | 0.00 | 0.03 | 0.00 | 64 | 1008.2 |
| 20260504002323 | 6 | 82 | 0.0 | 0.0 | 0.00 | 0.03 | 0.00 | 63 | 1008.2 |
| 20260504001835 | 6 | 82 | 0.0 | 0.0 | 0.00 | 0.03 | 0.00 | 63 | 1008.2 |
| 20260504001317 | 6 | 82 | 0.0 | 0.0 | 0.00 | 0.03 | 0.00 | 61 | 1008.2 |
| 20260504000820 | 7 | 82 | 0.0 | 0.0 | 0.00 | 0.03 | 0.00 | 59 | 1008.2 |
| 20260504000329 | 7 | 82 | 0.0 | 0.0 | 0.00 | 0.03 | 0.00 | 58 | 1008.2 |
| 20260503235836 | 7 | 82 | 0.0 | 0.0 | 0.00 | 0.03 | 0.00 | 57 | 1008.2 |
| 20260503235316 | 8 | 82 | 0.0 | 1.6 | 0.00 | 0.03 | 0.00 | 56 | 1008.1 |
| 20260503234818 | 8 | 82 | 0.0 | 1.6 | 0.00 | 0.03 | 0.00 | 55 | 1008.2 |
| 20260503234323 | 8 | 82 | 0.0 | 1.6 | 0.00 | 0.03 | 0.00 | 55 | 1008.1 |
| 20260503233857 | 9 | 82 | 0.0 | 1.6 | 0.00 | 0.03 | 0.00 | 54 | 1008.1 |
| 20260503233316 | 10 | 82 | 0.0 | 0.0 | 0.00 | 0.03 | 0.00 | 53 | 1008.0 |
| 20260503232817 | 10 | 82 | 0.0 | 0.0 | 0.00 | 0.03 | 0.00 | 51 | 1008.1 |
| 20260503232345 | 11 | 82 | 0.0 | 0.0 | 0.00 | 0.03 | 0.00 | 49 | 1008.0 |
| 20260503231833 | 11 | 96 | 0.0 | 0.0 | 0.00 | 0.03 | 0.00 | 48 | 1007.9 |
| 20260503231335 | 11 | 96 | 0.0 | 0.0 | 0.00 | 0.03 | 0.00 | 48 | 1008.0 |
| 20260503230820 | 11 | 96 | 0.0 | 0.0 | 0.00 | 0.03 | 0.00 | 50 | 1007.9 |
| 20260503230320 | 11 | 96 | 0.0 | 0.0 | 0.00 | 0.03 | 0.00 | 48 | 1007.9 |
| 20260503225827 | 11 | 103 | 0.0 | 0.0 | 0.00 | 0.05 | 0.00 | 48 | 1007.9 |
| 20260503225327 | 10 | 103 | 0.0 | 0.0 | 0.00 | 0.05 | 0.00 | 50 | 1008.0 |
| 20260503224836 | 10 | 103 | 0.0 | 0.0 | 0.00 | 0.05 | 0.00 | 50 | 1008.0 |
| 20260503224322 | 10 | 212 | 0.0 | 0.0 | 0.00 | 0.05 | 0.00 | 52 | 1007.9 |
| 20260503223846 | 10 | 212 | 0.0 | 0.0 | 0.00 | 0.05 | 0.00 | 53 | 1008.0 |
| 20260503223335 | 10 | 212 | 0.0 | 0.0 | 0.00 | 0.05 | 0.00 | 49 | 1007.9 |
| 20260503222324 | 10 | 89 | 0.0 | 0.0 | 0.00 | 0.05 | 0.00 | 50 | 1008.0 |
| 20260503221825 | 10 | 89 | 0.0 | 0.0 | 0.00 | 0.05 | 0.00 | 50 | 1008.0 |
| 20260503221332 | 10 | 89 | 0.0 | 0.0 | 0.00 | 0.05 | 0.00 | 49 | 1008.0 |
| 20260503220813 | 10 | 89 | 0.0 | 0.0 | 0.00 | 0.05 | 0.00 | 47 | 1008.0 |
| 20260503220319 | 10 | 89 | 0.0 | 0.0 | 0.00 | 0.05 | 0.00 | 48 | 1008.0 |
| 20260503215819 | 10 | 90 | 0.0 | 0.0 | 0.00 | 0.08 | 0.00 | 48 | 1008.0 |
| 20260503215346 | 10 | 87 | 0.0 | 1.6 | 0.00 | 0.08 | 0.00 | 50 | 1008.0 |
| 20260503214834 | 10 | 87 | 0.0 | 1.6 | 0.00 | 0.08 | 0.00 | 49 | 1008.0 |
| 20260503214334 | 10 | 87 | 0.0 | 1.6 | 0.00 | 0.08 | 0.00 | 48 | 1008.0 |
| 20260503213820 | 10 | 231 | 0.0 | 1.6 | 0.00 | 0.08 | 0.00 | 49 | 1008.0 |
| 20260503213320 | 10 | 231 | 0.0 | 1.6 | 0.00 | 0.08 | 0.00 | 47 | 1008.0 |
| 20260503212847 | 10 | 231 | 0.0 | 1.6 | 0.00 | 0.08 | 0.00 | 50 | 1008.0 |
| 20260503212333 | 10 | 231 | 0.0 | 0.0 | 0.00 | 0.08 | 0.00 | 53 | 1008.0 |
| 20260503211814 | 10 | 231 | 0.0 | 0.0 | 0.00 | 0.08 | 0.00 | 51 | 1008.0 |
| 20260503211315 | 10 | 231 | 0.0 | 1.6 | 0.00 | 0.08 | 0.00 | 50 | 1008.0 |
| 20260503210824 | 10 | 231 | 0.0 | 1.6 | 0.00 | 0.08 | 0.00 | 49 | 1007.9 |
| 20260503210324 | 10 | 231 | 0.0 | 1.6 | 0.00 | 0.08 | 0.00 | 51 | 1007.9 |
| 20260503205811 | 10 | 231 | 0.0 | 0.0 | 0.00 | 0.08 | 0.00 | 50 | 1007.9 |
| 20260503205311 | 10 | 106 | 0.0 | 4.8 | 0.00 | 0.08 | 0.00 | 50 | 1007.9 |
| 20260503204840 | 10 | 106 | 0.0 | 4.8 | 0.00 | 0.08 | 0.00 | 48 | 1007.9 |
| 20260503204318 | 10 | 70 | 0.0 | 3.2 | 0.00 | 0.08 | 0.00 | 49 | 1007.9 |
| 20260503203825 | 10 | 87 | 0.0 | 3.2 | 0.00 | 0.08 | 0.00 | 49 | 1007.9 |
| 20260503203325 | 10 | 101 | 0.0 | 1.6 | 0.00 | 0.08 | 0.00 | 52 | 1007.8 |
| 20260503202831 | 10 | 252 | 0.0 | 1.6 | 0.00 | 0.08 | 0.00 | 52 | 1007.9 |
| 20260503202310 | 10 | 281 | 0.0 | 1.6 | 0.00 | 0.08 | 0.00 | 49 | 1008.0 |
| 20260503201811 | 10 | 293 | 0.0 | 1.6 | 0.00 | 0.08 | 0.00 | 50 | 1008.0 |
| 20260503201316 | 10 | 236 | 0.0 | 1.6 | 0.00 | 0.08 | 0.00 | 50 | 1008.0 |
| 20260503200816 | 10 | 239 | 0.0 | 1.6 | 0.00 | 0.08 | 0.00 | 51 | 1008.1 |
| 20260503200323 | 10 | 249 | 0.0 | 3.2 | 0.00 | 0.08 | 0.00 | 50 | 1008.1 |
| 20260503195822 | 10 | 235 | 0.0 | 3.2 | 0.00 | 0.08 | 0.00 | 49 | 1008.2 |
| 20260503195329 | 10 | 301 | 0.0 | 4.8 | 0.00 | 0.08 | 0.00 | 49 | 1008.2 |
| 20260503194829 | 10 | 324 | 1.6 | 4.8 | 0.00 | 0.08 | 0.00 | 53 | 1008.3 |
| 20260503194315 | 10 | 231 | 0.0 | 4.8 | 0.00 | 0.08 | 0.00 | 54 | 1008.5 |
| 20260503193815 | 10 | 244 | 1.6 | 4.8 | 0.00 | 0.08 | 0.00 | 51 | 1008.5 |
| 20260503193342 | 9 | 252 | 0.0 | 4.8 | 0.00 | 0.08 | 0.00 | 54 | 1008.6 |
| 20260503192820 | 9 | 299 | 1.6 | 4.8 | 0.00 | 0.08 | 0.00 | 51 | 1008.7 |
| 20260503192328 | 9 | 265 | 0.0 | 4.8 | 0.00 | 0.08 | 0.00 | 53 | 1008.8 |
| 20260503191828 | 10 | 303 | 0.0 | 3.2 | 0.00 | 0.08 | 0.00 | 55 | 1008.8 |
| 20260503191334 | 10 | 293 | 1.6 | 4.8 | 0.00 | 0.08 | 0.00 | 50 | 1008.9 |
| 20260503190813 | 10 | 296 | 1.6 | 4.8 | 0.00 | 0.08 | 0.00 | 51 | 1008.8 |
| 20260503190320 | 10 | 274 | 0.0 | 6.4 | 0.00 | 0.08 | 0.00 | 51 | 1008.8 |
| 20260503185819 | 10 | 245 | 1.6 | 6.4 | 0.00 | 0.08 | 0.00 | 54 | 1008.9 |
| 20260503185326 | 9 | 294 | 1.6 | 3.2 | 0.00 | 0.08 | 0.00 | 54 | 1008.9 |
| 20260503184826 | 9 | 282 | 1.6 | 4.8 | 0.00 | 0.08 | 0.00 | 53 | 1009.0 |
| 20260503184313 | 9 | 275 | 0.0 | 4.8 | 0.00 | 0.08 | 0.00 | 55 | 1009.1 |
| 20260503183833 | 9 | 124 | 1.6 | 3.2 | 0.00 | 0.08 | 0.00 | 53 | 1009.1 |
| 20260503183319 | 9 | 238 | 1.6 | 4.8 | 0.00 | 0.08 | 0.00 | 53 | 1009.1 |
| 20260503182834 | 9 | 257 | 1.6 | 4.8 | 0.00 | 0.08 | 0.00 | 55 | 1009.2 |
| 20260503182332 | 8 | 122 | 0.0 | 4.8 | 0.00 | 0.08 | 0.00 | 56 | 1009.2 |
| 20260503181818 | 8 | 247 | 1.6 | 4.8 | 0.00 | 0.08 | 0.00 | 55 | 1009.2 |
| 20260503181317 | 8 | 252 | 1.6 | 4.8 | 0.00 | 0.08 | 0.00 | 53 | 1009.2 |
| 20260503180824 | 9 | 290 | 1.6 | 4.8 | 0.00 | 0.08 | 0.00 | 54 | 1009.2 |
| 20260503180324 | 9 | 293 | 1.6 | 4.8 | 0.00 | 0.08 | 0.00 | 53 | 1009.2 |
| 20260503175828 | 9 | 248 | 1.6 | 4.8 | 0.00 | 0.08 | 0.00 | 55 | 1009.2 |
| 20260503175328 | 9 | 245 | 0.0 | 4.8 | 0.00 | 0.08 | 0.00 | 54 | 1009.3 |
| 20260503174828 | 9 | 300 | 1.6 | 6.4 | 0.00 | 0.08 | 0.00 | 56 | 1009.2 |
| 20260503174334 | 9 | 295 | 1.6 | 6.4 | 0.00 | 0.08 | 0.00 | 53 | 1009.2 |
| 20260503173820 | 10 | 13 | 1.6 | 6.4 | 0.00 | 0.08 | 0.00 | 52 | 1009.2 |
| 20260503173320 | 10 | 236 | 1.6 | 4.8 | 0.00 | 0.08 | 0.00 | 54 | 1009.2 |
| 20260503172826 | 9 | 242 | 0.0 | 6.4 | 0.00 | 0.08 | 0.00 | 59 | 1009.3 |
| 20260503172326 | 8 | 255 | 1.6 | 6.4 | 0.00 | 0.08 | 0.00 | 54 | 1009.3 |
| 20260503171853 | 8 | 293 | 0.0 | 4.8 | 0.00 | 0.08 | 0.00 | 56 | 1009.3 |
| 20260503171311 | 8 | 210 | 1.6 | 4.8 | 0.00 | 0.08 | 0.00 | 54 | 1009.4 |
| 20260503170824 | 8 | 251 | 1.6 | 4.8 | 0.00 | 0.08 | 0.00 | 57 | 1009.4 |
| 20260503170325 | 8 | 277 | 0.0 | 3.2 | 0.00 | 0.08 | 0.00 | 57 | 1009.4 |
| 20260503150824 | 8 | 276 | 3.2 | 11.3 | 0.00 | 0.08 | 0.00 | 54 | 1010.1 |
| 20260503150324 | 9 | 160 | 3.2 | 11.3 | 0.00 | 0.08 | 0.00 | 53 | 1010.1 |